Vorticity
nan nan nan nan nan nan nan nan nan nan nan nan nan nan nan nan nan nan nan nan nan nan nan nan nan nan nan nan nan nan nan nan nan nan nan nan nan nan nan nan nan nan nan
nan 7 8 7 6 5 5 4 5 5 5 5 5 5 5 5 5 5 5 6 7 7 6 3 3 5 6 5 4 6 6 6 7 6 6 2 3 5 3 4 6 7 nan
nan 7 8 8 6 5 5 5 5 5 5 4 5 5 5 6 5 5 5 6 8 6 5 4 4 5 5 5 5 5 6 6 6 6 1 3 7 7 4 5 7 8 nan
nan 5 8 8 7 6 5 5 5 5 5 4 5 5 5 5 6 5 5 6 6 6 6 4 5 5 4 5 6 5 5 5 5 3 3 9 9 8 5 5 6 6 nan
nan 6 8 8 7 6 5 5 5 5 4 5 5 5 5 5 5 4 5 6 6 6 5 4 5 4 4 5 6 6 3 3 3 2 7 8 10 9 6 5 5 5 nan
nan 7 8 7 7 7 6 6 5 5 5 5 5 6 5 5 5 4 4 5 6 5 4 4 4 4 4 6 6 4 4 4 3 4 8 7 10 11 6 5 6 5 nan
nan 8 8 7 6 7 7 6 5 5 6 5 5 5 5 6 6 5 5 5 6 6 7 7 5 3 4 5 6 4 6 5 3 5 6 7 14 11 6 5 5 6 nan
nan 7 8 7 7 7 6 6 6 6 6 5 6 6 6 6 6 6 6 8 8 6 9 12 12 5 3 5 5 7 8 5 4 6 7 9 14 8 6 4 5 7 nan
nan 5 6 8 8 7 7 7 7 7 7 6 6 5 6 7 7 10 10 11 11 9 9 8 4 10 4 4 5 7 6 5 4 7 6 11 13 8 6 4 5 6 nan
nan 6 5 5 6 7 8 8 7 8 7 7 8 7 8 7 9 12 10 6 5 5 6 4 1 14 6 5 4 6 7 1 3 5 5 14 11 7 5 4 4 4 nan
nan 6 7 6 5 6 7 8 8 7 6 7 8 9 5 7 11 7 6 7 4 4 5 5 8 5 13 10 4 5 -1 1 6 5 11 15 7 6 4 4 4 5 nan
nan 7 6 7 5 5 6 7 7 6 6 7 7 7 7 9 8 7 8 7 7 7 6 5 7 7 13 4 6 3 2 8 8 6 13 12 6 5 4 4 4 5 nan
nan 6 8 6 7 5 5 6 7 7 7 8 8 7 7 7 7 6 7 7 10 7 4 9 6 6 9 7 6 5 7 6 6 10 13 10 8 6 6 4 5 5 nan
nan 7 6 6 6 4 5 7 7 6 7 7 9 8 6 7 7 7 8 8 5 7 8 6 7 6 7 8 9 6 7 7 7 9 12 12 9 8 6 4 5 4 nan
nan 8 8 6 5 7 5 5 7 7 7 8 9 8 7 7 7 7 8 8 6 7 5 8 8 7 6 6 11 7 7 9 8 7 11 10 9 11 8 5 5 4 nan
nan 7 7 5 7 7 6 6 5 7 8 8 9 9 7 7 8 8 8 8 8 7 7 8 7 8 7 9 11 10 8 8 8 8 8 9 9 9 11 10 7 6 nan
nan 13 7 7 7 5 6 7 6 7 9 8 9 10 7 7 8 7 6 8 8 8 7 5 5 7 9 10 8 9 9 9 8 8 7 8 9 10 10 10 8 9 nan
nan 13 6 7 7 6 7 5 6 9 10 9 9 10 8 8 7 6 7 7 8 8 7 7 7 7 8 9 7 7 8 9 9 6 6 7 7 9 11 12 11 11 nan
nan 11 11 8 8 7 5 8 6 7 9 9 9 9 9 8 8 6 7 9 9 7 8 7 7 7 7 8 8 8 8 9 8 7 7 7 6 7 11 12 8 8 nan
nan 13 12 9 8 6 5 6 6 7 8 9 9 10 8 8 8 6 9 10 8 7 8 9 7 7 10 9 8 6 9 11 8 9 7 6 7 7 8 9 8 10 nan
nan 13 11 8 8 4 7 5 7 8 5 6 9 10 9 10 8 6 8 9 8 9 9 7 9 8 6 9 6 5 12 14 8 7 8 8 8 7 7 7 7 9 nan
nan 14 11 8 6 3 6 6 9 9 8 8 8 9 9 10 10 10 8 7 6 8 10 8 5 4 8 8 6 8 5 6 12 11 8 9 8 7 8 8 7 7 nan
nan 14 11 9 6 5 5 5 7 6 10 10 9 9 10 10 9 10 8 8 8 8 9 8 9 7 5 10 8 4 9 9 8 8 11 9 9 8 9 8 8 6 nan
nan 15 10 9 7 7 5 8 9 5 4 7 8 8 10 9 10 10 9 8 7 8 10 8 8 8 10 9 6 4 9 13 7 7 10 12 10 8 7 8 9 8 nan
nan 19 12 10 7 9 5 6 7 6 7 10 11 9 7 8 10 10 9 8 6 7 9 10 8 8 8 9 6 6 8 7 9 11 10 7 10 13 9 9 9 9 nan
nan nan nan nan nan nan nan nan nan nan nan nan nan nan nan nan nan nan nan nan nan nan nan nan nan nan nan nan nan nan nan nan nan nan nan nan nan nan nan nan nan nan nan
CAPE
992 1316 1542 1610 1664 1644 1563 1488 1489 1531 1639 1693 1768 1949 2075 2059 2011 1993 2102 2081 1980 2252 2441 1826 1958 1957 1791 1504 1785 1582 1519 1385 1228 1456 1507 1665 1438 1317 1307 1444 1367 1242 1549
1029 1428 1584 1640 1728 1799 1731 1613 1624 1733 1892 1931 1869 1932 2046 2083 2041 2097 2157 2197 2300 2300 2192 1804 1932 1895 1552 1610 1497 1444 1342 1266 1298 1354 1570 1394 1445 1275 1242 1326 1259 1283 1402
1179 1446 1660 1696 1798 1867 1890 1838 1899 2025 2108 2099 2057 2005 2060 2145 2117 2124 2193 2290 2342 2455 2094 1799 1774 1868 1696 1639 1503 1491 1399 1320 1274 1324 1337 875 1162 1331 1286 1375 1386 1388 1225
1263 1443 1627 1768 1883 1931 1876 1885 1991 2168 2157 2232 2220 2174 2164 2229 2166 2087 2125 2233 2428 2487 2201 1944 1909 1889 1653 1495 1406 1387 1281 1136 1008 944 745 783 1225 1332 1262 1239 1266 1234 1237
1334 1456 1553 1769 1972 1970 1905 1897 1977 2120 2153 2181 2241 2341 2333 2350 2322 2172 2023 1988 2495 2536 2295 1984 1899 1663 1442 1198 1192 1203 1149 864 750 460 292 702 1015 1292 1301 1241 1278 1191 1203
1362 1430 1459 1604 1799 2004 2018 1959 1994 2025 1959 1978 2111 2390 2464 2469 2435 2152 1929 2051 2528 2376 2296 2197 2051 1243 1077 968 1021 1043 818 506 348 362 572 843 741 1145 1097 1168 1241 1123 1023
1221 1266 1354 1542 1685 1872 2058 2103 2029 1965 1910 1937 2057 2227 2375 2446 2247 2106 1807 1898 2200 1751 1565 1612 1377 923 1009 864 910 693 398 350 295 328 402 543 753 1108 1082 1098 1138 1125 1090
1192 1154 1214 1434 1625 1829 1909 1863 1951 1998 1908 1961 1991 2069 2267 2221 2119 1957 1731 1520 1444 996 878 1030 926 816 828 856 673 364 292 367 289 302 377 442 987 1040 1068 914 969 1024 955
1094 1078 1150 1409 1622 1636 1697 1672 1744 1938 1989 1973 1998 2012 2086 2040 1852 1671 1534 1213 953 782 684 701 571 618 523 631 415 251 283 283 208 223 365 552 976 1055 1070 892 814 682 609
1063 1072 1038 1108 1282 1246 1276 1498 1690 1888 1976 1979 1956 1903 1886 1915 1688 1165 994 919 724 684 596 533 333 331 385 306 229 149 227 266 224 214 274 436 1025 892 822 627 558 428 316
1344 1125 992 978 974 980 987 1269 1546 1658 1746 1771 1623 1564 1492 1252 907 804 420 692 356 334 414 348 177 115 127 206 110 104 142 87 131 128 75 617 881 812 733 620 578 406 204
1708 1279 1051 916 944 919 1261 1163 1170 1382 1177 1227 1207 1101 887 635 385 254 128 449 62 63 179 255 186 123 145 105 65 13 0 0 36 71 225 459 996 897 795 575 528 275 143
2060 1809 1453 1160 1094 1115 1356 804 783 1110 902 791 813 526 370 251 380 83 21 198 59 165 137 147 88 96 105 33 38 0 0 0 0 25 228 393 848 776 708 486 304 213 127
2121 2232 1925 1712 1580 1494 1382 894 821 839 764 659 457 470 463 251 166 138 118 77 117 66 57 9 14 31 88 57 24 0 0 0 0 27 127 261 460 659 603 487 261 152 61
1833 2411 2103 2102 2028 1825 1473 1121 1046 993 860 722 403 666 467 127 22 66 3 79 150 103 103 2 2 89 114 76 18 6 0 0 6 26 68 164 234 402 469 324 173 67 31
1732 2258 2208 1875 2246 1899 1637 1377 1228 1186 1047 693 470 630 409 235 45 26 0 85 138 97 71 16 0 41 146 94 28 1 0 0 0 0 6 3 21 73 229 241 136 60 36
0 1987 2304 1978 2032 1893 1532 1384 1032 919 944 880 599 517 489 138 80 22 1 12 93 76 68 66 17 36 28 77 34 0 0 0 0 0 0 0 0 0 3 43 41 40 26
0 1171 2430 2262 2002 1738 1506 1263 908 782 789 803 584 531 480 293 219 130 76 2 28 207 80 28 4 6 0 29 19 0 0 0 0 0 0 0 0 0 0 12 32 49 39
0 4 2290 2242 2063 1739 1232 1145 810 713 553 402 483 520 427 428 323 284 207 141 40 71 72 9 10 14 16 23 24 7 0 0 0 0 0 0 0 0 0 6 24 26 40
0 85 2124 2140 2016 1688 1162 794 554 579 477 486 272 515 358 371 237 239 199 62 143 106 5 2 0 0 9 30 106 44 0 0 0 0 0 0 0 0 0 0 9 11 24
0 608 1761 2030 1690 1434 1073 689 529 731 511 277 220 230 342 335 268 150 6 25 158 11 0 0 0 0 9 41 84 0 0 0 0 0 0 0 0 0 0 0 0 0 6
0 386 1828 1829 1390 1490 1109 827 554 272 383 452 144 183 199 172 86 63 41 29 29 0 2 2 0 0 6 29 0 0 1 0 0 0 0 0 0 0 0 0 0 0 0
0 1295 1710 1658 1375 1252 801 92 69 23 72 164 246 163 158 113 30 36 62 50 1 1 2 2 0 0 19 1 0 0 1 0 0 0 0 0 0 0 0 0 0 0 0
0 1045 1674 1674 1413 818 320 276 213 240 196 254 334 124 113 127 21 11 34 13 0 2 1 1 1 4 27 1 1 0 0 0 0 0 0 0 0 0 0 0 0 0 0
455 1417 1672 1640 1076 560 559 247 171 144 117 158 174 149 48 2 34 27 19 6 1 0 0 4 6 0 4 1 0 0 0 0 0 0 0 0 0 0 0 0 0 0 0
0 1561 1591 1496 938 598 446 239 208 184 134 182 191 171 82 36 22 14 38 27 1 0 6 17 16 1 5 0 0 0 0 0 0 0 0 0 0 0 0 0 0 0 0